Regional Weather Roundup
Issued by NWS

Home | Current Version | Previous Version | Text Only | Print | Product List | Glossary Off
Versions: 1 2 3 4 5 6 7 8 9 10 11 12 13 14 15 16 17 18 19 20 21 22 23 24 25 26 27 28 29 30 31 32 33 34 35 36 37 38 39 40 41 42 43 44 45 46 47 48 49 50

000
ASUS45 KSLC 062210
RWRUT

UTAH REGIONAL WEATHER ROUNDUP
NATIONAL WEATHER SERVICE SALT LAKE CITY UT
400 PM MDT MON JUL 06 2015

UTZ001>011-023>025-062300-

NORTHERN UTAH

CITY           SKY/WX    TMP DP  RH WIND       PRES   REMARKS
BRIGHAM CITY   PTSUNNY   82  51  33 NW12G17   30.09S
HILL AFB       NOT AVBL
LOGAN          CLOUDY    72  60  66 N13       30.12R
OGDEN          PTSUNNY   86  50  28 NW16G22   30.07F
PROVO AIRPORT  PTSUNNY   81  55  41 NW12      30.09S
SALT LAKE CITY PTSUNNY   86  51  29 NW8       30.05S
VERNAL         TSTM      74  56  53 N9        30.15R
WENDOVER       MOSUNNY   86  46  25 NW9       30.07S
HEBER CITY     CLOUDY    86  45  23 SW9       30.13F
WEST JORDAN    MOSUNNY   82  54  36 S15G22    30.09S

$$

UTZ012>022-026-027-062300-

SOUTHERN/CENTRAL UTAH

CITY           SKY/WX    TMP DP  RH WIND       PRES   REMARKS
BLANDING       CLOUDY    78  54  42 W16       30.25S
BRYCE CANYON   CLOUDY    71  49  45 N5        30.34F
CEDAR CITY     LGT RAIN  63  52  67 E22G28    30.24S
DELTA          MOSUNNY   88  37  16 W9G18     30.09F
HANKSVILLE     PTSUNNY   86  48  26 NW10G26   30.09S
MILFORD        CLOUDY    79  48  33 S17       30.15R
MOAB/CYNLANDS  MOSUNNY   89  50  26 W7        30.02F
PRICE          LGT RAIN  73  44  35 W21G29    30.17R
ST GEORGE      CLOUDY    90  52  27 SE7       30.03F
KANAB          PTSUNNY   68  57  68 W22G33    30.21R

$$

REGIONAL REPORTS     COLORADO/ARIZONA

CITY           SKY/WX    TMP DP  RH WIND       PRES   REMARKS
CRAIG, CO      PTSUNNY   78  50  37 CALM      30.18F
GRAND JUNCTION PTSUNNY   80  42  25 E7        30.06F
RIFLE          PTSUNNY   81  48  31 MISG      30.14F
MONTROSE       MOSUNNY   83  51  33 NW8       30.16F
CORTEZ         SUNNY     88  41  19 NW18G25   30.13F
PAGE, AZ       CLOUDY    83  49  30 N6        30.09F
GRAND CANYON   MOSUNNY   76  49  38 W14       30.27F
KINGMAN        PTSUNNY   83  56  39 N24G30    30.07R
FLAGSTAFF      LGT RAIN  68  57  68 VRB6      30.31S

$$

REGIONAL REPORTS    NEVADA/IDAHO/WYOMING

CITY           SKY/WX    TMP DP  RH WIND       PRES   REMARKS
LAS VEGAS, NV  PTSUNNY   96  50  20 SE5       29.90F HX  93
ELY            CLOUDY    77  40  26 S13       30.22F
ELKO           MOSUNNY   86  43  22 CALM      30.11F
POCATELLO, ID  MOSUNNY   81  50  33 MISG      30.11F
BURLEY         SUNNY     82  50  32 CALM      30.08F
EVANSTON, WY   MOSUNNY   75  43  31 W17G28    30.24S
ROCK SPRINGS   PTSUNNY   72  50  45 E9        30.23F
KEMMERER       PTSUNNY   77  43  29 W9        30.25F

$$


USA.gov is the U.S. government's official web portal to all federal, state and local government web resources and services.